Parkersburg, WV

3:28 AM EDT on April 28, 2017 (GMT -0400)
Wood County Wilson

Weather History for KPKB - November, 2011

Change the Weather History Date:

Sunday, November 27, 2011

  Actual Average Record
Temperature  
Mean Temperature 57 °F 41 °F  
Max Temperature 60 °F 50 °F 80 °F (1990)
Min Temperature 54 °F 32 °F 8 °F (1930)
Degree Days  
Heating Degree Days 8 24  
Month to date heating degree days 439 518  
Since 1 July heating degree days 846 912  
Cooling Degree Days 0 0  
Month to date cooling degree days 1 0  
Year to date cooling degree days 1101 953  
Growing Degree Days 6 (Base 50)    
Moisture  
Dew Point 50 °F    
Average Humidity 70    
Maximum Humidity 93    
Minimum Humidity 47    
Precipitation  
Precipitation 0.40 in 0.11 in 0.73 in (2001)
Month to date precipitation 3.93 3.02  
Year to date precipitation 53.64 37.75  
Sea Level Pressure  
Sea Level Pressure 29.97 in    
Wind  
Wind Speed 5 mph (SSE)    
Max Wind Speed 10 mph    
Max Gust Speed 15 mph    
Visibility 6 miles    
Events Fog , Rain    
T = Trace of Precipitation, MM = Missing Value Source: NWS Daily Summary

Daily Weather History Graph

Daily Weather History Graph

Search for Another Location

Airport or City:

Trip Planner

Search our weather history database for the weather conditions in past years. The results will help you decide how hot, cold, wet, or windy it might be!

Date:

Astronomy

Nov. 27, 2011 Rise Set
Actual Time 7:22 AM EST 5:04 PM EST
Civil Twilight 6:52 AM EST 5:33 PM EST
Nautical Twilight 6:19 AM EST 6:06 PM EST
Astronomical Twilight 5:47 AM EST 6:38 PM EST
Moon 9:45 AM EST (11/27) 7:41 PM EST (11/27)
Length of Visible Light 10h 40m
Length of Day
9h 41m
Waxing Crescent, 8% of the Moon is Illuminated
Nov 27
Waxing Crescent
Dec 2
First Quarter
Dec 10
Full
Dec 17
Last Quarter
Dec 24
New

Hourly Weather History & Observations

Time (EST) Temp. Dew Point Humidity Pressure Visibility Wind Dir Wind Speed Gust Speed Precip Events Conditions
12:53 AM 55.0 °F 35.1 °F 47% 30.06 in 10.0 mi SSE 8.1 mph - N/A   Clear
1:53 AM 54.0 °F 36.0 °F 51% 30.04 in 10.0 mi SSE 8.1 mph - N/A   Clear
2:53 AM 54.0 °F 37.9 °F 55% 30.03 in 10.0 mi SSE 9.2 mph - N/A   Clear
3:53 AM 54.0 °F 39.9 °F 59% 30.00 in 10.0 mi SSE 8.1 mph - N/A   Clear
4:53 AM 54.0 °F 42.1 °F 64% 29.99 in 10.0 mi SSE 5.8 mph - N/A   Clear
5:53 AM 55.0 °F 42.1 °F 62% 29.99 in 10.0 mi SSE 9.2 mph - N/A   Scattered Clouds
6:53 AM 55.9 °F 43.0 °F 62% 29.99 in 10.0 mi SSE 6.9 mph - N/A   Overcast
7:53 AM 57.0 °F 44.1 °F 62% 30.01 in 10.0 mi SSE 4.6 mph - N/A   Overcast
8:53 AM 57.9 °F 45.0 °F 62% 30.00 in 10.0 mi SE 5.8 mph - N/A   Overcast
9:53 AM 59.0 °F 46.4 °F 63% 30.00 in 10.0 mi SSE 6.9 mph - N/A Rain Light Rain
10:53 AM 60.1 °F 48.0 °F 64% 29.99 in 10.0 mi SSE 4.6 mph - 0.00 in Rain Light Rain
11:53 AM 57.9 °F 48.9 °F 72% 29.96 in 10.0 mi SE 4.6 mph - 0.02 in   Overcast
12:53 PM 59.0 °F 51.1 °F 75% 29.94 in 10.0 mi SE 3.5 mph - 0.01 in   Overcast
1:53 PM 57.9 °F 52.0 °F 81% 29.94 in 7.0 mi SSE 5.8 mph - 0.03 in Rain Light Rain
2:53 PM 55.9 °F 53.1 °F 90% 29.93 in 6.0 mi SE 3.5 mph - 0.05 in Rain Light Rain
3:53 PM 55.9 °F 53.1 °F 90% 29.95 in 4.0 mi SSE 5.8 mph - 0.06 in Rain Rain
4:53 PM 55.9 °F 54.0 °F 93% 29.94 in 10.0 mi South 4.6 mph - 0.06 in Rain Light Rain
5:53 PM 55.9 °F 54.0 °F 93% 29.94 in 7.0 mi SW 5.8 mph - 0.04 in Rain Light Rain
6:53 PM 55.9 °F 54.0 °F 93% 29.96 in 10.0 mi SSW 3.5 mph - 0.04 in Rain Light Rain
7:53 PM 55.9 °F 54.0 °F 93% 29.96 in 10.0 mi Calm Calm - 0.01 in Rain Light Rain
8:53 PM 55.0 °F 54.0 °F 96% 29.96 in 4.0 mi Calm Calm - 0.02 in Rain Light Rain
8:57 PM 53.6 °F 53.6 °F 100% 29.96 in 1.8 mi Calm Calm - 0.00 in Rain Light Rain
9:07 PM 55.4 °F 53.6 °F 94% 29.95 in 8.0 mi Calm Calm - 0.01 in Fog , Rain Light Rain
9:53 PM 55.0 °F 54.0 °F 96% 29.95 in 8.0 mi Calm Calm - 0.01 in Fog Overcast
10:03 PM 53.6 °F 53.6 °F 100% 29.95 in 2.5 mi ESE 4.6 mph - N/A Fog Overcast
10:11 PM 53.6 °F 53.6 °F 100% 29.95 in 1.0 mi ESE 4.6 mph - N/A   Overcast
10:19 PM 53.6 °F 53.6 °F 100% 29.95 in 3.0 mi ESE 4.6 mph - 0.00 in Rain Light Rain
10:34 PM 53.6 °F 53.6 °F 100% 29.96 in 3.0 mi Calm Calm - 0.01 in Rain Light Rain
10:41 PM 53.6 °F 53.6 °F 100% 29.96 in 2.5 mi Calm Calm - 0.01 in Rain Light Rain
10:50 PM 53.6 °F 53.6 °F 100% 29.97 in 4.0 mi Calm Calm - 0.01 in Rain Light Rain
10:53 PM 54.0 °F 54.0 °F 100% 29.96 in 4.0 mi Calm Calm - 0.01 in Rain Light Rain
10:57 PM 53.6 °F 53.6 °F 100% 29.97 in 2.5 mi Calm Calm - 0.00 in Rain Light Rain
11:18 PM 53.6 °F 53.6 °F 100% 29.97 in 1.0 mi Calm Calm - 0.00 in Rain Light Rain
11:24 PM 53.6 °F 53.6 °F 100% 29.97 in 3.0 mi Calm Calm - 0.01 in Rain Light Rain
11:31 PM 53.6 °F 53.6 °F 100% 29.97 in 1.5 mi ESE 3.5 mph - 0.01 in Rain Light Rain
11:50 PM 53.6 °F 53.6 °F 100% 29.97 in 3.0 mi Calm Calm - 0.04 in Rain Light Rain
11:51 PM 54.0 °F 54.0 °F 100% 29.96 in 3.0 mi Calm Calm - 0.04 in Rain Light Rain
11:58 PM 53.6 °F 53.6 °F 100% 29.97 in 4.0 mi ESE 3.5 mph - 0.00 in Rain Light Rain